Year,Month,Day,Hour,Minute,Value (Times are PST for temperature in C)
2014,08,10,00,00,19.80
2014,08,10,00,01,19.90
2014,08,10,00,02,19.90
2014,08,10,00,03,20.00
2014,08,10,00,04,20.10
2014,08,10,00,05,20.20
2014,08,10,00,06,20.30
2014,08,10,00,07,20.40
2014,08,10,00,08,20.50
2014,08,10,00,09,20.60
2014,08,10,00,10,20.70
2014,08,10,00,11,20.70
2014,08,10,00,12,20.80
2014,08,10,00,13,20.80
2014,08,10,00,14,20.90
2014,08,10,00,15,20.90
2014,08,10,00,16,21.00
2014,08,10,00,17,21.00
2014,08,10,00,18,21.10
2014,08,10,00,19,21.10
2014,08,10,00,20,21.10
2014,08,10,00,21,21.10
2014,08,10,00,22,21.20
2014,08,10,00,23,21.20
2014,08,10,00,24,21.20
2014,08,10,00,25,21.20
2014,08,10,00,26,21.20
2014,08,10,00,27,21.10
2014,08,10,00,28,21.10
2014,08,10,00,29,21.10
2014,08,10,00,30,21.00
2014,08,10,00,31,21.00
2014,08,10,00,32,20.90
2014,08,10,00,33,20.90
2014,08,10,00,34,20.80
2014,08,10,00,35,20.70
2014,08,10,00,36,20.70
2014,08,10,00,37,20.60
2014,08,10,00,38,20.60
2014,08,10,00,39,20.50
2014,08,10,00,40,20.50
2014,08,10,00,41,20.40
2014,08,10,00,42,20.40
2014,08,10,00,43,20.30
2014,08,10,00,44,20.30
2014,08,10,00,45,20.20
2014,08,10,00,46,20.20
2014,08,10,00,47,20.20
2014,08,10,00,48,20.10
2014,08,10,00,49,20.10
2014,08,10,00,50,20.10
2014,08,10,00,51,20.00
2014,08,10,00,52,20.00
2014,08,10,00,53,19.90
2014,08,10,00,54,19.90
2014,08,10,00,55,19.90
2014,08,10,00,56,19.90
2014,08,10,00,57,19.90
2014,08,10,00,58,19.90
2014,08,10,00,59,19.80
2014,08,10,01,00,19.80
2014,08,10,01,01,19.80
2014,08,10,01,02,19.70
2014,08,10,01,03,19.70
2014,08,10,01,04,19.60
2014,08,10,01,05,19.60
2014,08,10,01,06,19.50
2014,08,10,01,07,19.40
2014,08,10,01,08,19.30
2014,08,10,01,09,19.20
2014,08,10,01,10,19.20
2014,08,10,01,11,19.20
2014,08,10,01,12,19.10
2014,08,10,01,13,19.10
2014,08,10,01,14,19.10
2014,08,10,01,15,19.00
2014,08,10,01,16,19.00
2014,08,10,01,17,18.90
2014,08,10,01,18,18.80
2014,08,10,01,19,18.80
2014,08,10,01,20,18.70
2014,08,10,01,21,18.60
2014,08,10,01,22,18.50
2014,08,10,01,23,18.40
2014,08,10,01,24,18.30
2014,08,10,01,25,18.20
2014,08,10,01,26,18.10
2014,08,10,01,27,18.00
2014,08,10,01,28,17.90
2014,08,10,01,29,17.90
2014,08,10,01,30,17.70
2014,08,10,01,31,17.60
2014,08,10,01,32,17.50
2014,08,10,01,33,17.40
2014,08,10,01,34,17.40
2014,08,10,01,35,17.30
2014,08,10,01,36,17.20
2014,08,10,01,37,17.20
2014,08,10,01,38,17.10
2014,08,10,01,39,17.00
2014,08,10,01,40,17.00
2014,08,10,01,41,17.00
2014,08,10,01,42,17.00
2014,08,10,01,43,17.00
2014,08,10,01,44,16.90
2014,08,10,01,45,16.90
2014,08,10,01,46,16.90
2014,08,10,01,47,16.90
2014,08,10,01,48,16.90
2014,08,10,01,49,16.90
2014,08,10,01,50,16.90
2014,08,10,01,51,16.90
2014,08,10,01,52,16.90
2014,08,10,01,53,16.90
2014,08,10,01,54,16.90
2014,08,10,01,55,16.90
2014,08,10,01,56,16.90
2014,08,10,01,57,16.80
2014,08,10,01,58,16.80
2014,08,10,01,59,16.80
2014,08,10,02,00,16.70
2014,08,10,02,01,16.70
2014,08,10,02,02,16.70
2014,08,10,02,03,16.60
2014,08,10,02,04,16.60
2014,08,10,02,05,16.60
2014,08,10,02,06,16.60
2014,08,10,02,07,16.60
2014,08,10,02,08,16.50
2014,08,10,02,09,16.40
2014,08,10,02,10,16.40
2014,08,10,02,11,16.30
2014,08,10,02,12,16.30
2014,08,10,02,13,16.30
2014,08,10,02,14,16.30
2014,08,10,02,15,16.30
2014,08,10,02,16,16.20
2014,08,10,02,17,16.10
2014,08,10,02,18,16.10
2014,08,10,02,19,16.10
2014,08,10,02,20,16.00
2014,08,10,02,21,16.00
2014,08,10,02,22,16.00
2014,08,10,02,23,16.00
2014,08,10,02,24,16.10
2014,08,10,02,25,16.10
2014,08,10,02,26,16.20
2014,08,10,02,27,16.20
2014,08,10,02,28,16.20
2014,08,10,02,29,16.20
2014,08,10,02,30,16.20
2014,08,10,02,31,16.20
2014,08,10,02,32,16.30
2014,08,10,02,33,16.40
2014,08,10,02,34,16.50
2014,08,10,02,35,16.60
2014,08,10,02,36,16.70
2014,08,10,02,37,16.80
2014,08,10,02,38,17.00
2014,08,10,02,39,17.10
2014,08,10,02,40,17.20
2014,08,10,02,41,17.30
2014,08,10,02,42,17.40
2014,08,10,02,43,17.50
2014,08,10,02,44,17.60
2014,08,10,02,45,17.70
2014,08,10,02,46,17.80
2014,08,10,02,47,17.80
2014,08,10,02,48,17.90
2014,08,10,02,49,18.00
2014,08,10,02,50,18.00
2014,08,10,02,51,18.10
2014,08,10,02,52,18.20
2014,08,10,02,53,18.20
2014,08,10,02,54,18.20
2014,08,10,02,55,18.30
2014,08,10,02,56,18.40
2014,08,10,02,57,18.40
2014,08,10,02,58,18.50
2014,08,10,02,59,18.60
2014,08,10,03,00,18.70
2014,08,10,03,01,18.70
2014,08,10,03,02,18.80
2014,08,10,03,03,18.80
2014,08,10,03,04,18.80
2014,08,10,03,05,18.80
2014,08,10,03,06,18.80
2014,08,10,03,07,18.70
2014,08,10,03,08,18.70
2014,08,10,03,09,18.70
2014,08,10,03,10,18.60
2014,08,10,03,11,18.60
2014,08,10,03,12,18.50
2014,08,10,03,13,18.50
2014,08,10,03,14,18.40
2014,08,10,03,15,18.40
2014,08,10,03,16,18.40
2014,08,10,03,17,18.30
2014,08,10,03,18,18.30
2014,08,10,03,19,18.40
2014,08,10,03,20,18.50
2014,08,10,03,21,18.60
2014,08,10,03,22,18.70
2014,08,10,03,23,18.70
2014,08,10,03,24,18.80
2014,08,10,03,25,18.80
2014,08,10,03,26,18.80
2014,08,10,03,27,18.80
2014,08,10,03,28,18.80
2014,08,10,03,29,18.80
2014,08,10,03,30,18.80
2014,08,10,03,31,18.80
2014,08,10,03,32,18.70
2014,08,10,03,33,18.70
2014,08,10,03,34,18.60
2014,08,10,03,35,18.60
2014,08,10,03,36,18.60
2014,08,10,03,37,18.60
2014,08,10,03,38,18.60
2014,08,10,03,39,18.50
2014,08,10,03,40,18.40
2014,08,10,03,41,18.30
2014,08,10,03,42,18.20
2014,08,10,03,43,18.10
2014,08,10,03,44,18.10
2014,08,10,03,45,18.00
2014,08,10,03,46,18.00
2014,08,10,03,47,18.00
2014,08,10,03,48,17.90
2014,08,10,03,49,17.80
2014,08,10,03,50,17.60
2014,08,10,03,51,17.40
2014,08,10,03,52,17.30
2014,08,10,03,53,17.20
2014,08,10,03,54,17.00
2014,08,10,03,55,17.00
2014,08,10,03,56,16.90
2014,08,10,03,57,16.80
2014,08,10,03,58,16.70
2014,08,10,03,59,16.70
2014,08,10,04,00,16.60
2014,08,10,04,01,16.50
2014,08,10,04,02,16.40
2014,08,10,04,03,16.30
2014,08,10,04,04,16.30
2014,08,10,04,05,16.20
2014,08,10,04,06,16.20
2014,08,10,04,07,16.20
2014,08,10,04,08,16.20
2014,08,10,04,09,16.10
2014,08,10,04,10,16.10
2014,08,10,04,11,16.10
2014,08,10,04,12,16.10
2014,08,10,04,13,16.10
2014,08,10,04,14,16.00
2014,08,10,04,15,16.00
2014,08,10,04,16,16.10
2014,08,10,04,17,16.10
2014,08,10,04,18,16.10
2014,08,10,04,19,16.20
2014,08,10,04,20,16.20
2014,08,10,04,21,16.20
2014,08,10,04,22,16.20
2014,08,10,04,23,16.20
2014,08,10,04,24,16.20
2014,08,10,04,25,16.20
2014,08,10,04,26,16.20
2014,08,10,04,27,16.20
2014,08,10,04,28,16.10
2014,08,10,04,29,16.10
2014,08,10,04,30,16.00
2014,08,10,04,31,15.90
2014,08,10,04,32,15.80
2014,08,10,04,33,15.70
2014,08,10,04,34,15.60
2014,08,10,04,35,15.50
2014,08,10,04,36,15.40
2014,08,10,04,37,15.30
2014,08,10,04,38,15.30
2014,08,10,04,39,15.20
2014,08,10,04,40,15.20
2014,08,10,04,41,15.20
2014,08,10,04,42,15.20
2014,08,10,04,43,15.10
2014,08,10,04,44,15.10
2014,08,10,04,45,15.10
2014,08,10,04,46,15.10
2014,08,10,04,47,15.10
2014,08,10,04,48,15.00
2014,08,10,04,49,15.00
2014,08,10,04,50,14.90
2014,08,10,04,51,14.90
2014,08,10,04,52,14.80
2014,08,10,04,53,14.80
2014,08,10,04,54,14.80
2014,08,10,04,55,14.80
2014,08,10,04,56,14.80
2014,08,10,04,57,14.80
2014,08,10,04,58,14.80
2014,08,10,04,59,14.70
2014,08,10,05,00,14.70
2014,08,10,05,01,14.70
2014,08,10,05,02,14.70
2014,08,10,05,03,14.70
2014,08,10,05,04,14.60
2014,08,10,05,05,14.60
2014,08,10,05,06,14.50
2014,08,10,05,07,14.40
2014,08,10,05,08,14.40
2014,08,10,05,09,14.30
2014,08,10,05,10,14.30
2014,08,10,05,11,14.30
2014,08,10,05,12,14.20
2014,08,10,05,13,14.10
2014,08,10,05,14,14.10
2014,08,10,05,15,14.00
2014,08,10,05,16,14.00
2014,08,10,05,17,14.00
2014,08,10,05,18,14.00
2014,08,10,05,19,13.90
2014,08,10,05,20,14.00
2014,08,10,05,21,14.00
2014,08,10,05,22,14.10
2014,08,10,05,23,14.10
2014,08,10,05,24,14.20
2014,08,10,05,25,14.20
2014,08,10,05,26,14.30
2014,08,10,05,27,14.30
2014,08,10,05,28,14.40
2014,08,10,05,29,14.40
2014,08,10,05,30,14.40
2014,08,10,05,31,14.40
2014,08,10,05,32,14.30
2014,08,10,05,33,14.30
2014,08,10,05,34,14.30
2014,08,10,05,35,14.20
2014,08,10,05,36,14.20
2014,08,10,05,37,14.20
2014,08,10,05,38,14.20
2014,08,10,05,39,14.20
2014,08,10,05,40,14.20
2014,08,10,05,41,14.20
2014,08,10,05,42,14.20
2014,08,10,05,43,14.20
2014,08,10,05,44,14.20
2014,08,10,05,45,14.20
2014,08,10,05,46,14.10
2014,08,10,05,47,14.10
2014,08,10,05,48,14.10
2014,08,10,05,49,14.10
2014,08,10,05,50,14.00
2014,08,10,05,51,14.00
2014,08,10,05,52,14.00
2014,08,10,05,53,13.90
2014,08,10,05,54,14.00
2014,08,10,05,55,14.00
2014,08,10,05,56,14.10
2014,08,10,05,57,14.10
2014,08,10,05,58,14.10
2014,08,10,05,59,14.20
2014,08,10,06,00,14.20
2014,08,10,06,01,14.30
2014,08,10,06,02,14.30
2014,08,10,06,03,14.40
2014,08,10,06,04,14.50
2014,08,10,06,05,14.60
2014,08,10,06,06,14.60
2014,08,10,06,07,14.70
2014,08,10,06,08,14.70
2014,08,10,06,09,14.80
2014,08,10,06,10,14.80
2014,08,10,06,11,14.90
2014,08,10,06,12,14.90
2014,08,10,06,13,14.80
2014,08,10,06,14,14.80
2014,08,10,06,15,14.80
2014,08,10,06,16,14.90
2014,08,10,06,17,14.90
2014,08,10,06,18,14.90
2014,08,10,06,19,14.90
2014,08,10,06,20,14.90
2014,08,10,06,21,14.90
2014,08,10,06,22,14.90
2014,08,10,06,23,14.90
2014,08,10,06,24,14.80
2014,08,10,06,25,14.70
2014,08,10,06,26,14.70
2014,08,10,06,27,14.60
2014,08,10,06,28,14.50
2014,08,10,06,29,14.40
2014,08,10,06,30,14.40
2014,08,10,06,31,14.30
2014,08,10,06,32,14.30
2014,08,10,06,33,14.20
2014,08,10,06,34,14.10
2014,08,10,06,35,14.10
2014,08,10,06,36,14.10
2014,08,10,06,37,14.00
2014,08,10,06,38,14.00
2014,08,10,06,39,14.00
2014,08,10,06,40,14.00
2014,08,10,06,41,14.10
2014,08,10,06,42,14.20
2014,08,10,06,43,14.30
2014,08,10,06,44,14.40
2014,08,10,06,45,14.50
2014,08,10,06,46,14.60
2014,08,10,06,47,14.60
2014,08,10,06,48,14.70
2014,08,10,06,49,14.70
2014,08,10,06,50,14.70
2014,08,10,06,51,14.70
2014,08,10,06,52,14.70
2014,08,10,06,53,14.90
2014,08,10,06,54,15.00
2014,08,10,06,55,15.20
2014,08,10,06,56,15.30
2014,08,10,06,57,15.40
2014,08,10,06,58,15.50
2014,08,10,06,59,15.60
2014,08,10,07,00,15.70
2014,08,10,07,01,15.80
2014,08,10,07,02,15.90
2014,08,10,07,03,16.00
2014,08,10,07,04,16.00
2014,08,10,07,05,16.10
2014,08,10,07,06,16.10
2014,08,10,07,07,16.10
2014,08,10,07,08,16.20
2014,08,10,07,09,16.20
2014,08,10,07,10,16.30
2014,08,10,07,11,16.30
2014,08,10,07,12,16.30
2014,08,10,07,13,16.30
2014,08,10,07,14,16.40
2014,08,10,07,15,16.40
2014,08,10,07,16,16.40
2014,08,10,07,17,16.50
2014,08,10,07,18,16.50
2014,08,10,07,19,16.60
2014,08,10,07,20,16.70
2014,08,10,07,21,16.80
2014,08,10,07,22,16.90
2014,08,10,07,23,17.10
2014,08,10,07,24,17.20
2014,08,10,07,25,17.20
2014,08,10,07,26,17.30
2014,08,10,07,27,17.30
2014,08,10,07,28,17.40
2014,08,10,07,29,17.40
2014,08,10,07,30,17.50
2014,08,10,07,31,17.50
2014,08,10,07,32,17.60
2014,08,10,07,33,17.70
2014,08,10,07,34,17.80
2014,08,10,07,35,17.80
2014,08,10,07,36,17.80
2014,08,10,07,37,17.90
2014,08,10,07,38,17.90
2014,08,10,07,39,17.90
2014,08,10,07,40,18.00
2014,08,10,07,41,18.10
2014,08,10,07,42,18.20
2014,08,10,07,43,18.30
2014,08,10,07,44,18.30
2014,08,10,07,45,18.40
2014,08,10,07,46,18.40
2014,08,10,07,47,18.50
2014,08,10,07,48,18.60
2014,08,10,07,49,18.60
2014,08,10,07,50,18.70
2014,08,10,07,51,18.80
2014,08,10,07,52,18.80
2014,08,10,07,53,18.90
2014,08,10,07,54,18.90
2014,08,10,07,55,19.00
2014,08,10,07,56,19.00
2014,08,10,07,57,19.10
2014,08,10,07,58,19.20
2014,08,10,07,59,19.20
2014,08,10,08,00,19.30
2014,08,10,08,01,19.30
2014,08,10,08,02,19.40
2014,08,10,08,03,19.50
2014,08,10,08,04,19.60
2014,08,10,08,05,19.60
2014,08,10,08,06,19.70
2014,08,10,08,07,19.70
2014,08,10,08,08,19.80
2014,08,10,08,09,19.80
2014,08,10,08,10,19.90
2014,08,10,08,11,20.00
2014,08,10,08,12,20.00
2014,08,10,08,13,20.00
2014,08,10,08,14,20.10
2014,08,10,08,15,20.10
2014,08,10,08,16,20.10
2014,08,10,08,17,20.10
2014,08,10,08,18,20.10
2014,08,10,08,19,20.10
2014,08,10,08,20,20.20
2014,08,10,08,21,20.20
2014,08,10,08,22,20.20
2014,08,10,08,23,20.20
2014,08,10,08,24,20.20
2014,08,10,08,25,20.20
2014,08,10,08,26,20.20
2014,08,10,08,27,20.20
2014,08,10,08,28,20.30
2014,08,10,08,29,20.30
2014,08,10,08,30,20.30
2014,08,10,08,31,20.40
2014,08,10,08,32,20.40
2014,08,10,08,33,20.40
2014,08,10,08,34,20.40
2014,08,10,08,35,20.30
2014,08,10,08,36,20.30
2014,08,10,08,37,20.30
2014,08,10,08,38,20.30
2014,08,10,08,39,20.30
2014,08,10,08,40,20.30
2014,08,10,08,41,20.30
2014,08,10,08,42,20.40
2014,08,10,08,43,20.40
2014,08,10,08,44,20.40
2014,08,10,08,45,20.40
2014,08,10,08,46,20.40
2014,08,10,08,47,20.40
2014,08,10,08,48,20.40
2014,08,10,08,49,20.40
2014,08,10,08,50,20.50
2014,08,10,08,51,20.50
2014,08,10,08,52,20.50
2014,08,10,08,53,20.60
2014,08,10,08,54,20.60
2014,08,10,08,55,20.60
2014,08,10,08,56,20.50
2014,08,10,08,57,20.60
2014,08,10,08,58,20.60
2014,08,10,08,59,20.60
2014,08,10,09,00,20.60
2014,08,10,09,01,20.60
2014,08,10,09,02,20.70
2014,08,10,09,03,20.70
2014,08,10,09,04,20.70
2014,08,10,09,05,20.70
2014,08,10,09,06,20.60
2014,08,10,09,07,20.60
2014,08,10,09,08,20.60
2014,08,10,09,09,20.60
2014,08,10,09,10,20.70
2014,08,10,09,11,20.70
2014,08,10,09,12,20.80
2014,08,10,09,13,20.80
2014,08,10,09,14,20.90
2014,08,10,09,15,20.90
2014,08,10,09,16,20.90
2014,08,10,09,17,20.90
2014,08,10,09,18,20.90
2014,08,10,09,19,20.80
2014,08,10,09,20,20.80
2014,08,10,09,21,20.80
2014,08,10,09,22,20.70
2014,08,10,09,23,20.70
2014,08,10,09,24,20.70
2014,08,10,09,25,20.70
2014,08,10,09,26,20.70
2014,08,10,09,27,20.70
2014,08,10,09,28,20.70
2014,08,10,09,29,20.70
2014,08,10,09,30,20.60
2014,08,10,09,31,20.60
2014,08,10,09,32,20.60
2014,08,10,09,33,20.70
2014,08,10,09,34,20.70
2014,08,10,09,35,20.70
2014,08,10,09,36,20.80
2014,08,10,09,37,20.80
2014,08,10,09,38,20.80
2014,08,10,09,39,20.90
2014,08,10,09,40,21.10
2014,08,10,09,41,21.00
2014,08,10,09,42,21.00
2014,08,10,09,43,20.90
2014,08,10,09,44,20.80
2014,08,10,09,45,20.80
2014,08,10,09,46,20.70
2014,08,10,09,47,20.70
2014,08,10,09,48,20.70
2014,08,10,09,49,20.70
2014,08,10,09,50,20.70
2014,08,10,09,51,20.70
2014,08,10,09,52,20.80
2014,08,10,09,53,20.80
2014,08,10,09,54,20.80
2014,08,10,09,55,20.80
2014,08,10,09,56,20.80
2014,08,10,09,57,20.90
2014,08,10,09,58,20.90
2014,08,10,09,59,21.00
2014,08,10,10,00,21.00
2014,08,10,10,01,21.10
2014,08,10,10,02,21.10
2014,08,10,10,03,21.10
2014,08,10,10,04,21.20
2014,08,10,10,05,21.20
2014,08,10,10,06,21.10
2014,08,10,10,07,21.10
2014,08,10,10,08,21.00
2014,08,10,10,09,20.90
2014,08,10,10,10,20.90
2014,08,10,10,11,20.90
2014,08,10,10,12,21.00
2014,08,10,10,13,21.00
2014,08,10,10,14,21.00
2014,08,10,10,15,21.10
2014,08,10,10,16,21.20
2014,08,10,10,17,21.30
2014,08,10,10,18,21.40
2014,08,10,10,19,21.40
2014,08,10,10,20,21.50
2014,08,10,10,21,21.50
2014,08,10,10,22,21.60
2014,08,10,10,23,21.60
2014,08,10,10,24,21.70
2014,08,10,10,25,21.60
2014,08,10,10,26,21.50
2014,08,10,10,27,21.50
2014,08,10,10,28,21.40
2014,08,10,10,29,21.30
2014,08,10,10,30,21.40
2014,08,10,10,31,21.40
2014,08,10,10,32,21.40
2014,08,10,10,33,21.40
2014,08,10,10,34,21.40
2014,08,10,10,35,21.40
2014,08,10,10,36,21.40
2014,08,10,10,37,21.40
2014,08,10,10,38,21.40
2014,08,10,10,39,21.40
2014,08,10,10,40,21.40
2014,08,10,10,41,21.40
2014,08,10,10,42,21.40
2014,08,10,10,43,21.40
2014,08,10,10,44,21.40
2014,08,10,10,45,21.50
2014,08,10,10,46,21.50
2014,08,10,10,47,21.50
2014,08,10,10,48,21.50
2014,08,10,10,49,21.60
2014,08,10,10,50,21.60
2014,08,10,10,51,21.60
2014,08,10,10,52,21.70
2014,08,10,10,53,21.70
2014,08,10,10,54,21.70
2014,08,10,10,55,21.80
2014,08,10,10,56,21.80
2014,08,10,10,57,21.80
2014,08,10,10,58,21.90
2014,08,10,10,59,21.80
2014,08,10,11,00,21.80
2014,08,10,11,01,21.80
2014,08,10,11,02,21.80
2014,08,10,11,03,21.80
2014,08,10,11,04,21.80
2014,08,10,11,05,21.80
2014,08,10,11,06,21.80
2014,08,10,11,07,21.80
2014,08,10,11,08,21.80
2014,08,10,11,09,21.90
2014,08,10,11,10,22.00
2014,08,10,11,11,22.10
2014,08,10,11,12,22.20
2014,08,10,11,13,22.30
2014,08,10,11,14,22.30
2014,08,10,11,15,22.40
2014,08,10,11,16,22.50
2014,08,10,11,17,22.60
2014,08,10,11,18,22.60
2014,08,10,11,19,22.60
2014,08,10,11,20,22.60
2014,08,10,11,21,22.60
2014,08,10,11,22,22.50
2014,08,10,11,23,22.40
2014,08,10,11,24,22.40
2014,08,10,11,25,22.40
2014,08,10,11,26,22.50
2014,08,10,11,27,22.60
2014,08,10,11,28,22.70
2014,08,10,11,29,22.70
2014,08,10,11,30,22.70
2014,08,10,11,31,22.60
2014,08,10,11,32,22.60
2014,08,10,11,33,22.60
2014,08,10,11,34,22.60
2014,08,10,11,35,22.60
2014,08,10,11,36,22.60
2014,08,10,11,37,22.60
2014,08,10,11,38,22.50
2014,08,10,11,39,22.40
2014,08,10,11,40,22.40
2014,08,10,11,41,22.50
2014,08,10,11,42,22.60
2014,08,10,11,43,22.60
2014,08,10,11,44,22.60
2014,08,10,11,45,22.60
2014,08,10,11,46,22.70
2014,08,10,11,47,22.70
2014,08,10,11,48,22.70
2014,08,10,11,49,22.70
2014,08,10,11,50,22.70
2014,08,10,11,51,22.60
2014,08,10,11,52,22.50
2014,08,10,11,53,22.40
2014,08,10,11,54,22.40
2014,08,10,11,55,22.50
2014,08,10,11,56,22.50
2014,08,10,11,57,22.50
2014,08,10,11,58,22.50
2014,08,10,11,59,22.50
2014,08,10,12,00,22.50
2014,08,10,12,01,22.50
2014,08,10,12,02,22.60
2014,08,10,12,03,22.60
2014,08,10,12,04,22.70
2014,08,10,12,05,22.70
2014,08,10,12,06,22.80
2014,08,10,12,07,22.80
2014,08,10,12,08,22.80
2014,08,10,12,09,22.80
2014,08,10,12,10,22.80
2014,08,10,12,11,22.80
2014,08,10,12,12,22.80
2014,08,10,12,13,22.70
2014,08,10,12,14,22.70
2014,08,10,12,15,22.70
2014,08,10,12,16,22.70
2014,08,10,12,17,22.70
2014,08,10,12,18,22.70
2014,08,10,12,19,22.80
2014,08,10,12,20,22.80
2014,08,10,12,21,22.90
2014,08,10,12,22,22.90
2014,08,10,12,23,22.80
2014,08,10,12,24,22.80
2014,08,10,12,25,22.90
2014,08,10,12,26,23.00
2014,08,10,12,27,23.10
2014,08,10,12,28,23.10
2014,08,10,12,29,23.10
2014,08,10,12,30,23.10
2014,08,10,12,31,23.10
2014,08,10,12,32,23.10
2014,08,10,12,33,23.10
2014,08,10,12,34,23.20
2014,08,10,12,35,23.10
2014,08,10,12,36,23.10
2014,08,10,12,37,23.10
2014,08,10,12,38,23.10
2014,08,10,12,39,23.10
2014,08,10,12,40,23.10
2014,08,10,12,41,23.10
2014,08,10,12,42,23.20
2014,08,10,12,43,23.20
2014,08,10,12,44,23.20
2014,08,10,12,45,23.20
2014,08,10,12,46,23.20
2014,08,10,12,47,23.20
2014,08,10,12,48,23.10
2014,08,10,12,49,23.10
2014,08,10,12,50,23.10
2014,08,10,12,51,23.10
2014,08,10,12,52,23.10
2014,08,10,12,53,23.10
2014,08,10,12,54,23.10
2014,08,10,12,55,23.10
2014,08,10,12,56,23.10
2014,08,10,12,57,23.10
2014,08,10,12,58,23.20
2014,08,10,12,59,23.30
2014,08,10,13,00,23.30
2014,08,10,13,01,23.30
2014,08,10,13,02,23.40
2014,08,10,13,03,23.50
2014,08,10,13,04,23.50
2014,08,10,13,05,23.60
2014,08,10,13,06,23.60
2014,08,10,13,07,23.60
2014,08,10,13,08,23.80
2014,08,10,13,09,23.80
2014,08,10,13,10,23.90
2014,08,10,13,11,23.90
2014,08,10,13,12,24.00
2014,08,10,13,13,24.00
2014,08,10,13,14,24.10
2014,08,10,13,15,24.10
2014,08,10,13,16,24.10
2014,08,10,13,17,24.10
2014,08,10,13,18,24.20
2014,08,10,13,19,24.20
2014,08,10,13,20,24.20
2014,08,10,13,21,24.20
2014,08,10,13,22,24.20
2014,08,10,13,23,24.30
2014,08,10,13,24,24.20
2014,08,10,13,25,24.20
2014,08,10,13,26,24.20
2014,08,10,13,27,24.10
2014,08,10,13,28,24.10
2014,08,10,13,29,24.20
2014,08,10,13,30,24.20
2014,08,10,13,31,24.20
2014,08,10,13,32,24.20
2014,08,10,13,33,24.20
2014,08,10,13,34,24.20
2014,08,10,13,35,24.20
2014,08,10,13,36,24.30
2014,08,10,13,37,24.30
2014,08,10,13,38,24.30
2014,08,10,13,39,24.40
2014,08,10,13,40,24.50
2014,08,10,13,41,24.60
2014,08,10,13,42,24.70
2014,08,10,13,43,24.80
2014,08,10,13,44,24.90
2014,08,10,13,45,24.90
2014,08,10,13,46,24.90
2014,08,10,13,47,24.80
2014,08,10,13,48,24.80
2014,08,10,13,49,24.80
2014,08,10,13,50,24.70
2014,08,10,13,51,24.80
2014,08,10,13,52,24.80
2014,08,10,13,53,24.90
2014,08,10,13,54,25.00
2014,08,10,13,55,25.00
2014,08,10,13,56,25.00
2014,08,10,13,57,25.00
2014,08,10,13,58,25.00
2014,08,10,13,59,25.00
2014,08,10,14,00,25.00
2014,08,10,14,01,24.90
2014,08,10,14,02,24.90
2014,08,10,14,03,24.80
2014,08,10,14,04,24.90
2014,08,10,14,05,24.90
2014,08,10,14,06,24.80
2014,08,10,14,07,24.70
2014,08,10,14,08,24.60
2014,08,10,14,09,24.60
2014,08,10,14,10,24.70
2014,08,10,14,11,24.80
2014,08,10,14,12,24.80
2014,08,10,14,13,24.90
2014,08,10,14,14,24.90
2014,08,10,14,15,24.90
2014,08,10,14,16,25.10
2014,08,10,14,17,25.20
2014,08,10,14,18,25.40
2014,08,10,14,19,25.60
2014,08,10,14,20,25.70
2014,08,10,14,21,25.80
2014,08,10,14,22,25.90
2014,08,10,14,23,26.00
2014,08,10,14,24,26.10
2014,08,10,14,25,26.20
2014,08,10,14,26,26.20
2014,08,10,14,27,26.20
2014,08,10,14,28,26.10
2014,08,10,14,29,26.00
2014,08,10,14,30,25.90
2014,08,10,14,31,25.90
2014,08,10,14,32,25.90
2014,08,10,14,33,26.00
2014,08,10,14,34,26.00
2014,08,10,14,35,26.10
2014,08,10,14,36,26.10
2014,08,10,14,37,26.10
2014,08,10,14,38,26.10
2014,08,10,14,39,26.10
2014,08,10,14,40,26.00
2014,08,10,14,41,25.90
2014,08,10,14,42,25.80
2014,08,10,14,43,25.80
2014,08,10,14,44,25.90
2014,08,10,14,45,26.00
2014,08,10,14,46,26.10
2014,08,10,14,47,26.20
2014,08,10,14,48,26.40
2014,08,10,14,49,26.40
2014,08,10,14,50,26.40
2014,08,10,14,51,26.40
2014,08,10,14,52,26.50
2014,08,10,14,53,26.60
2014,08,10,14,54,26.60
2014,08,10,14,55,26.50
2014,08,10,14,56,26.40
2014,08,10,14,57,26.40
2014,08,10,14,58,26.30
2014,08,10,14,59,26.30
2014,08,10,15,00,26.40
2014,08,10,15,01,26.40
2014,08,10,15,02,26.40
2014,08,10,15,03,26.50
2014,08,10,15,04,26.60
2014,08,10,15,05,26.70
2014,08,10,15,06,26.70
2014,08,10,15,07,26.70
2014,08,10,15,08,26.70
2014,08,10,15,09,26.70
2014,08,10,15,10,26.70
2014,08,10,15,11,26.70
2014,08,10,15,12,26.70
2014,08,10,15,13,26.70
2014,08,10,15,14,26.80
2014,08,10,15,15,26.80
2014,08,10,15,16,26.80
2014,08,10,15,17,26.80
2014,08,10,15,18,26.80
2014,08,10,15,19,26.90
2014,08,10,15,20,26.90
2014,08,10,15,21,26.90
2014,08,10,15,22,26.90
2014,08,10,15,23,26.80
2014,08,10,15,24,26.80
2014,08,10,15,25,26.70
2014,08,10,15,26,26.70
2014,08,10,15,27,26.70
2014,08,10,15,28,26.70
2014,08,10,15,29,26.70
2014,08,10,15,30,26.80
2014,08,10,15,31,26.80
2014,08,10,15,32,26.80
2014,08,10,15,33,26.70
2014,08,10,15,34,26.70
2014,08,10,15,35,26.70
2014,08,10,15,36,26.80
2014,08,10,15,37,26.90
2014,08,10,15,38,26.90
2014,08,10,15,39,27.10
2014,08,10,15,40,27.10
2014,08,10,15,41,27.10
2014,08,10,15,42,27.10
2014,08,10,15,43,27.10
2014,08,10,15,44,27.10
2014,08,10,15,45,27.10
2014,08,10,15,46,27.20
2014,08,10,15,47,27.20
2014,08,10,15,48,27.20
2014,08,10,15,49,27.10
2014,08,10,15,50,27.10
2014,08,10,15,51,27.10
2014,08,10,15,52,27.10
2014,08,10,15,53,27.20
2014,08,10,15,54,27.30
2014,08,10,15,55,27.30
2014,08,10,15,56,27.30
2014,08,10,15,57,27.20
2014,08,10,15,58,27.10
2014,08,10,15,59,27.10
2014,08,10,16,00,27.10
2014,08,10,16,01,27.10
2014,08,10,16,02,27.10
2014,08,10,16,03,27.10
2014,08,10,16,04,27.10
2014,08,10,16,05,27.10
2014,08,10,16,06,27.10
2014,08,10,16,07,27.00
2014,08,10,16,08,27.00
2014,08,10,16,09,26.90
2014,08,10,16,10,27.00
2014,08,10,16,11,27.00
2014,08,10,16,12,27.00
2014,08,10,16,13,27.00
2014,08,10,16,14,27.00
2014,08,10,16,15,27.00
2014,08,10,16,16,27.00
2014,08,10,16,17,27.00
2014,08,10,16,18,27.10
2014,08,10,16,19,27.10
2014,08,10,16,20,27.10
2014,08,10,16,21,27.10
2014,08,10,16,22,27.20
2014,08,10,16,23,27.20
2014,08,10,16,24,27.20
2014,08,10,16,25,27.20
2014,08,10,16,26,27.20
2014,08,10,16,27,27.10
2014,08,10,16,28,27.10
2014,08,10,16,29,27.20
2014,08,10,16,30,27.20
2014,08,10,16,31,27.20
2014,08,10,16,32,27.20
2014,08,10,16,33,27.30
2014,08,10,16,34,27.30
2014,08,10,16,35,27.30
2014,08,10,16,36,27.40
2014,08,10,16,37,27.40
2014,08,10,16,38,27.40
2014,08,10,16,39,27.50
2014,08,10,16,40,27.60
2014,08,10,16,41,27.70
2014,08,10,16,42,27.70
2014,08,10,16,43,27.80
2014,08,10,16,44,27.90
2014,08,10,16,45,28.00
2014,08,10,16,46,28.10
2014,08,10,16,47,28.20
2014,08,10,16,48,28.30
2014,08,10,16,49,28.30
2014,08,10,16,50,28.50
2014,08,10,16,51,28.60
2014,08,10,16,52,28.70
2014,08,10,16,53,28.80
2014,08,10,16,54,28.90
2014,08,10,16,55,29.10
2014,08,10,16,56,29.20
2014,08,10,16,57,29.30
2014,08,10,16,58,29.30
2014,08,10,16,59,29.40
2014,08,10,17,00,29.40
2014,08,10,17,01,29.40
2014,08,10,17,02,29.30
2014,08,10,17,03,29.30
2014,08,10,17,04,29.20
2014,08,10,17,05,29.20
2014,08,10,17,06,29.10
2014,08,10,17,07,29.10
2014,08,10,17,08,29.10
2014,08,10,17,09,29.10
2014,08,10,17,10,29.10
2014,08,10,17,11,29.10
2014,08,10,17,12,29.10
2014,08,10,17,13,29.10
2014,08,10,17,14,29.20
2014,08,10,17,15,29.20
2014,08,10,17,16,29.30
2014,08,10,17,17,29.40
2014,08,10,17,18,29.40
2014,08,10,17,19,29.40